Location: Unspecified
(0.0000°N, 0.0000°E)
Time: 04:18:16
(UTC+00:00)

deb NOAA 5 - Pass Details

Date: 18 February 2026
Orbit: 1470 x 1835 km, 102.5° (Epoch: 10 March)

Event Time Altitude Azimuth Distance (km) Brightness Sun altitude
Rises 20:31:17 0° 157° (SSE) 4,803 ? -33.6°
Reaches altitude 10° 20:34:16 10° 155° (SSE) 3,772 ? -34.3°
Enters shadow 20:35:33 15° 153° (SSE) 3,336 ? -34.6°
Exits shadow 20:52:13 - 352° (N) 3,952 ? -38.7°
Sets 20:53:57 0° 350° (N) 4,569 ? -39.1°
